Theta_e
344 345 344 345 343 343 342 342 341 339 337 335 334 332 334 333 332 333 333 331 332 333 333 334 332 332 330 330 331 332 335 334 333 331 330 329 332 333 329 331 335 340 335
343 345 344 343 342 342 341 341 340 339 336 333 334 332 332 332 330 329 329 329 329 328 331 332 332 331 331 332 333 335 336 335 332 329 329 328 334 336 332 329 337 337 337
340 342 345 342 343 342 340 341 340 340 338 334 331 331 330 329 329 328 328 328 327 327 328 329 332 332 332 332 333 334 335 335 330 329 328 342 342 335 334 333 330 331 336
337 344 343 341 343 340 338 338 339 339 336 332 330 330 329 328 328 328 327 327 327 328 329 328 329 329 331 332 333 335 335 336 331 328 328 340 346 334 333 331 334 332 329
336 341 340 338 343 337 334 334 337 337 333 328 327 327 327 328 331 334 337 331 329 329 334 334 334 334 335 335 332 332 333 336 335 335 330 332 341 341 334 331 331 335 333
336 333 334 335 338 335 331 329 329 329 329 328 330 335 336 335 335 334 337 336 331 336 336 334 331 333 334 334 333 332 333 334 336 335 335 336 338 339 340 332 331 335 334
333 331 331 332 334 334 330 329 328 328 329 330 333 336 337 338 336 334 334 334 335 338 336 334 333 335 338 334 332 334 334 334 335 336 334 333 334 336 340 332 331 332 333
331 330 332 330 330 331 330 328 329 329 330 334 336 337 339 338 337 335 333 334 334 333 333 334 334 336 338 334 332 336 336 336 337 337 335 332 332 335 337 332 332 330 330
331 330 331 329 329 329 329 329 329 331 332 334 333 335 338 338 335 334 333 333 333 333 334 334 335 335 340 336 331 337 338 340 339 339 336 333 333 334 335 335 331 329 330
333 332 331 332 330 330 329 329 330 330 331 332 333 337 337 336 334 332 333 336 335 334 335 338 340 335 340 339 331 335 337 340 341 341 341 340 337 337 335 335 335 339 329
333 333 333 335 335 332 331 331 331 332 332 334 336 337 337 343 344 341 344 340 332 331 333 336 336 335 337 332 333 334 337 343 338 340 341 340 340 338 336 337 337 339 337
338 339 338 336 342 338 337 336 337 340 344 344 343 340 342 343 337 337 336 333 334 335 333 331 335 338 341 341 340 338 343 345 338 337 339 339 341 341 340 338 338 339 340
337 338 336 337 336 337 337 337 336 337 339 335 333 332 332 333 333 334 332 331 330 329 332 339 341 343 344 344 344 342 342 342 343 339 343 340 341 341 342 342 340 339 339
335 333 334 334 334 334 334 334 334 334 334 334 334 334 334 333 333 333 336 337 337 337 339 342 342 343 345 344 344 343 344 343 339 338 340 342 342 342 343 342 342 338 338
337 334 333 332 333 333 333 333 334 334 335 337 336 334 332 334 336 341 343 341 342 344 340 338 339 343 345 345 346 345 345 344 342 343 342 342 344 343 343 342 341 337 335
344 341 338 335 334 333 333 333 334 335 337 340 339 334 332 335 342 345 344 344 346 344 344 344 344 344 345 346 345 345 344 344 344 343 343 344 344 344 342 342 341 340 333
346 346 346 344 338 340 338 335 333 340 340 341 339 337 332 335 336 341 346 344 345 343 343 344 345 344 344 343 344 345 346 345 344 344 344 344 345 346 345 342 343 340 337
346 346 346 346 345 344 345 340 337 343 341 344 345 345 346 346 346 343 343 343 344 345 344 344 346 344 344 344 344 344 343 344 345 345 344 345 346 346 346 345 344 343 339
344 345 345 346 345 346 347 346 342 342 344 342 343 346 346 346 347 348 348 342 344 345 345 347 347 345 346 345 344 344 344 345 344 344 346 346 345 344 344 346 345 344 344
343 343 344 344 345 345 346 347 346 344 343 344 344 343 343 345 346 348 347 346 345 344 345 347 347 345 345 344 345 348 346 345 346 345 344 344 345 345 345 344 344 346 345
344 344 343 343 344 344 345 346 347 347 346 346 346 346 345 345 345 346 346 346 345 346 345 345 346 346 346 346 344 346 347 344 347 346 346 346 345 343 344 343 342 342 344
344 344 344 344 343 343 343 344 345 345 347 346 346 345 345 345 345 345 345 346 346 345 344 344 344 345 347 346 345 345 347 343 344 347 346 343 343 342 344 344 343 342 342
344 343 344 344 344 343 343 343 344 345 345 346 343 342 339 339 338 340 341 341 340 343 345 343 343 345 347 348 345 346 347 346 346 346 346 342 342 343 342 342 343 343 343
343 343 343 343 343 343 343 344 344 344 344 343 341 339 339 340 342 341 339 337 335 336 340 342 344 344 344 345 347 346 345 346 347 347 346 346 345 342 341 342 341 341 342
342 342 343 343 342 342 343 343 344 344 344 343 343 343 342 342 342 344 344 344 343 341 343 344 344 344 345 345 347 350 349 347 346 346 347 346 345 347 346 345 342 341 341
346 343 342 343 343 342 343 343 343 343 344 344 344 345 345 345 344 344 345 346 346 347 346 341 348 350 350 350 348 350 350 350 350 347 348 348 347 347 347 347 345 344 341
Wind_Speed
24 24 23 20 22 22 22 20 19 19 20 19 19 19 17 17 17 15 15 16 18 18 18 14 14 14 14 12 9 7 5 6 6 6 8 10 11 11 12 13 14 14 14
27 24 23 21 22 22 22 20 20 19 19 19 18 17 14 13 12 12 11 11 11 13 14 15 13 11 9 7 3 1 0 3 7 7 7 8 9 8 10 11 12 13 12
26 26 24 22 21 22 20 20 19 18 18 17 17 15 13 10 8 7 5 6 6 8 8 11 12 11 8 6 6 3 2 2 3 7 8 8 8 7 8 9 9 10 11
27 26 26 24 21 21 20 20 19 19 17 16 15 12 10 8 6 6 6 5 5 5 6 7 8 8 8 8 7 6 5 4 3 5 8 9 7 7 7 7 8 8 8
27 27 26 24 22 21 20 20 19 18 17 16 13 10 8 7 5 4 4 4 5 4 5 5 5 5 4 6 9 9 8 7 6 6 7 8 9 5 6 7 7 7 8
26 26 25 23 22 21 20 20 19 18 16 14 11 9 7 6 5 5 4 4 4 3 4 3 3 4 4 5 6 7 9 9 8 9 9 8 7 6 5 6 7 6 6
25 24 24 22 21 21 21 19 18 16 14 12 10 8 7 7 7 7 7 7 6 6 6 5 4 4 3 4 5 6 8 10 11 10 9 9 9 6 6 4 5 6 5
23 23 22 21 20 20 20 18 16 14 13 12 10 9 8 8 7 8 8 8 9 9 9 8 7 6 6 5 5 4 5 7 9 10 10 10 11 8 7 6 6 6 5
22 22 21 21 20 19 18 18 16 14 13 13 11 11 10 9 8 9 10 10 11 11 11 10 9 8 7 6 6 5 4 3 5 8 8 8 11 9 9 9 8 8 8
22 21 20 20 20 19 18 18 17 15 15 14 13 12 10 10 10 11 10 10 11 11 11 9 9 8 7 9 8 6 6 7 7 8 9 9 12 14 15 14 12 11 11
22 21 21 19 19 19 19 18 17 16 16 15 14 12 11 10 10 10 10 11 10 9 9 8 7 7 7 8 7 8 8 8 8 10 10 9 10 9 14 14 12 13 12
23 22 21 21 19 18 18 18 17 16 14 14 14 13 12 11 10 9 9 7 7 7 8 7 5 6 6 7 8 9 9 10 11 11 13 12 11 11 11 15 17 17 15
22 21 21 21 20 19 18 17 17 16 15 15 14 13 13 12 11 10 8 7 6 6 6 6 6 5 5 6 6 9 11 12 12 12 11 11 12 12 13 12 12 14 17
22 21 20 20 21 20 19 18 18 17 17 16 15 14 14 13 12 11 9 7 6 6 7 7 7 8 7 7 6 8 8 9 9 10 11 11 12 12 13 12 12 13 15
19 20 20 19 19 19 19 18 18 18 18 16 16 14 15 14 13 12 10 9 8 6 7 9 9 9 10 11 10 10 11 10 9 10 11 12 13 13 13 15 14 15 15
18 19 18 18 18 18 18 17 17 18 17 17 16 16 15 16 15 14 14 13 11 9 9 9 10 11 12 12 12 12 12 11 13 14 13 13 15 16 17 17 17 17 17
19 18 18 17 18 18 17 16 18 16 15 15 14 13 15 15 17 17 16 17 14 14 14 15 16 18 17 16 16 16 16 16 14 16 18 18 18 17 18 19 17 16 17
20 20 20 19 20 19 17 17 19 17 18 18 16 16 15 15 14 15 19 20 20 18 18 19 20 19 20 19 19 19 18 17 16 17 18 18 19 19 19 18 19 18 16
20 21 20 22 21 22 20 20 21 22 21 19 23 22 20 20 19 20 20 20 21 22 21 20 21 20 22 22 21 22 19 20 21 22 22 21 22 22 21 21 20 21 22
22 23 24 24 24 24 25 25 25 26 26 25 25 25 23 22 21 22 23 23 21 23 24 23 22 21 22 23 23 22 24 25 24 25 27 27 25 25 24 23 23 23 23
28 29 27 27 27 28 28 29 29 30 29 29 29 28 28 27 25 24 25 24 23 25 25 26 27 27 25 25 24 23 23 28 29 29 28 27 25 23 24 23 21 23 25
30 29 29 29 28 29 30 30 31 31 31 30 30 28 27 29 28 28 26 26 25 26 26 27 27 28 27 27 25 22 22 22 21 22 23 28 29 28 26 28 27 25 25
29 28 27 26 26 26 28 30 32 33 33 31 28 26 24 22 23 26 27 28 28 28 29 28 29 31 30 25 28 26 15 17 16 17 17 20 22 26 29 32 33 33 32
26 25 25 23 22 21 23 27 26 28 29 26 25 25 24 23 23 23 25 27 28 30 32 32 32 33 34 35 25 31 32 29 24 25 21 18 23 28 31 31 31 31 33
22 23 24 24 22 22 25 27 30 31 30 28 30 29 29 29 28 28 27 26 28 28 29 31 32 34 35 37 34 28 27 33 34 29 31 27 25 24 24 28 34 36 35
23 24 24 25 24 25 27 29 32 34 34 36 37 36 36 36 34 32 32 32 32 32 30 29 33 38 37 39 37 37 31 26 22 23 26 30 30 28 27 26 30 34 36
Wind_Direction
163 159 156 155 152 153 152 152 148 143 144 144 143 138 131 124 117 113 107 99 101 101 102 104 116 126 130 133 131 127 113 104 117 128 113 99 96 97 106 114 104 104 103
159 159 159 158 156 155 156 156 151 149 146 147 151 148 144 135 126 120 116 111 104 103 108 117 123 130 132 138 146 165 222 142 143 144 135 120 111 100 101 112 110 107 107
160 156 162 160 157 161 160 160 156 156 152 154 157 159 156 152 147 133 126 131 128 120 119 129 133 143 157 168 174 187 236 260 181 160 146 136 130 117 111 106 109 114 119
160 160 162 163 163 163 163 160 161 159 156 155 157 159 163 166 176 182 179 172 169 146 138 143 149 159 170 178 189 190 190 201 195 168 156 146 141 134 128 117 116 116 123
163 163 164 167 167 165 165 162 160 162 161 160 162 168 179 191 209 229 226 203 188 171 151 150 156 168 194 201 201 205 206 202 186 178 175 170 159 173 154 149 133 131 132
163 164 167 170 172 170 169 164 160 162 167 172 174 180 186 200 218 229 215 223 211 206 191 187 197 220 214 230 236 221 212 213 206 191 190 195 199 206 197 171 147 145 153
164 167 169 173 174 177 175 172 171 173 179 187 189 200 216 229 236 238 235 239 238 239 248 256 266 265 261 234 228 230 220 214 217 208 200 208 217 216 198 201 177 168 169
167 169 172 174 178 182 182 183 184 189 194 202 207 220 235 244 246 242 242 242 249 256 263 268 270 264 261 259 241 225 235 226 221 221 222 229 215 213 201 206 213 207 196
174 175 178 181 186 190 192 197 200 205 211 219 229 235 243 249 254 255 252 251 251 255 261 267 272 262 263 267 245 239 242 233 236 228 232 229 209 217 233 229 226 226 217
181 184 186 188 194 198 204 208 212 219 228 235 239 244 249 255 262 262 258 259 258 257 253 251 259 252 248 267 256 239 241 234 221 227 236 238 243 243 234 230 231 229 235
188 192 196 197 200 204 209 215 220 226 232 237 240 246 250 251 256 258 258 254 253 247 251 244 236 236 242 249 253 253 252 254 247 237 239 249 246 243 232 232 236 243 240
194 198 202 205 208 210 213 219 223 227 228 231 235 240 242 249 252 254 253 250 245 238 235 232 232 242 242 249 255 256 253 258 261 254 255 243 241 240 240 245 249 252 246
195 201 203 207 212 216 219 223 227 230 232 238 240 241 243 245 245 246 244 235 237 242 244 259 263 258 264 255 255 249 263 267 263 256 251 241 236 243 248 247 250 250 246
198 203 209 211 213 216 221 226 230 232 235 239 241 241 242 240 239 235 237 235 236 246 254 268 287 288 290 286 273 271 269 264 258 250 244 238 249 253 252 257 257 254 241
199 203 210 216 220 222 225 228 231 236 238 241 242 238 236 234 227 230 235 235 235 246 265 273 282 287 294 291 288 288 276 271 259 251 247 249 254 258 263 265 259 254 247
204 208 213 217 224 228 231 231 233 237 240 242 241 238 234 229 230 240 243 238 239 252 266 276 278 284 290 294 295 293 294 284 263 263 256 256 261 263 259 259 257 248 245
218 221 225 224 227 229 230 223 224 229 229 227 225 227 228 232 237 243 249 237 243 254 263 269 269 274 280 285 287 291 290 287 282 271 269 272 272 273 264 257 253 251 246
224 228 231 232 231 228 226 222 220 222 223 221 220 221 224 231 238 244 247 246 251 257 263 264 270 275 278 277 282 287 286 283 282 279 280 279 278 276 269 265 258 256 252
232 235 234 235 237 234 231 230 228 226 227 229 229 231 234 238 244 250 254 254 252 251 257 263 268 272 272 278 285 284 280 277 277 277 275 274 278 277 273 265 262 261 256
241 243 244 243 242 242 240 238 238 238 236 235 235 238 239 240 245 251 252 254 255 257 256 259 267 271 272 276 280 279 277 275 277 276 274 277 275 269 266 262 260 258 258
246 249 251 250 248 248 245 244 245 246 246 246 246 248 249 250 253 255 256 258 257 258 259 262 263 266 269 277 282 284 281 278 273 272 272 276 273 265 258 261 262 261 261
253 254 254 255 256 255 254 252 252 255 256 258 259 261 259 256 254 252 254 257 259 261 263 261 260 262 270 277 275 281 285 283 272 269 266 270 269 267 262 259 262 262 264
253 252 255 257 260 260 257 256 257 256 259 263 262 262 259 259 257 256 261 263 261 259 261 265 264 267 270 266 272 260 268 263 283 275 267 271 273 268 265 263 262 263 264
253 255 252 252 254 257 258 257 261 266 267 271 273 271 269 268 269 270 269 268 266 264 265 266 267 266 271 270 264 267 265 265 275 286 278 273 271 271 269 263 265 264 265
254 254 253 248 248 249 253 255 257 257 260 264 265 266 265 264 263 262 263 264 264 266 270 276 275 271 267 265 267 263 264 268 267 264 277 276 275 272 270 270 266 264 266
253 256 256 255 255 257 259 260 260 264 265 266 268 267 268 268 266 261 258 253 251 253 255 263 277 275 276 278 274 269 257 253 253 262 265 272 273 274 272 274 273 269 264